Location: ??????
(42.0089°N, 44.3281°E)
Time: 15:36:12
(UTC+00:00)

CZ-4 R/B - Pass Details

Date: 24 October 2021
Orbit: 530 x 595 km, 97.8° (Epoch: 07 December)

Event Time Altitude Azimuth Distance (km) Brightness Sun altitude
Exits shadow 14:49:20 - 127° (SE) 2,573 4.3 -8.4°
Reaches altitude 10° 14:51:27 10° 111° (ESE) 1,863 3.5 -8.8°
Maximum altitude 14:54:19 19° 66° (ENE) 1,394 2.8 -9.3°
Drops below altitude 10° 14:57:13 10° 21° (NNE) 1,900 3.8 -9.9°
Sets 14:59:53 0° 3° (N) 2,816 4.8 -10.4°
